sat.trackr.live / text

‹ back to catalog

UNKNOWN

NORAD 87335

UNKNOWN UNKNOWN UNKNOWN

§ Identity

Operator
Country
Launch date
Launch site
Launch vehicle
Mass (kg)
RCS (m²)

External: N2YO · Heavens-Above

§ Orbital elements

Epoch: 2026-05-23T19:52:19.676928Z

Period
101.88 min
Inclination
89.9800°
Eccentricity
0.0082020
Mean motion
14.13438339 rev/d
Perigee alt
788.4 km
Apogee alt
906.9 km
Semi-major
7,225.8 km
B*
6.5833e-3
RAAN
267.8176°
Arg perigee
75.2921°
Mean anomaly
285.7339°
Rev number
40,982

§ Raw data

UNKNOWN1 87335U          26143.82800552  .00012800  00000+0  65833-2 0  99992 87335  89.9800 267.8176 0082020  75.2921 285.7339 14.13438339409826

JSON: /api/v1/satellites/87335 · /tle

For live sub-satellite position, see the globe view (requires WebGL).

§ Visibility from observer

Set your observer location to see the next 7 days of passes ≥ 10°. The values pass through the URL so the page stays shareable.

No JS? Fill the form by hand. The geolocation button needs JavaScript.